sat.trackr.live / text

‹ back to catalog

STARLINK-35052

NORAD 65540 · 2025-200W

PAYLOAD ACTIVE UNKNOWN

§ Identity

Operator
Country
US
Launch date
2025-09-06
Launch site
AFWTR
Launch vehicle
Mass (kg)
RCS (m²)

Purposes: comms

External: N2YO · Heavens-Above · Gunter

§ Orbital elements

Epoch: 2026-09-20T11:12:49.300992Z

Period
93.91 min
Inclination
97.2850°
Eccentricity
0.0000944
Mean motion
15.33446052 rev/d
Perigee alt
464.9 km
Apogee alt
466.2 km
Semi-major
6,843.7 km
B*
4.4499e-4
RAAN
329.8159°
Arg perigee
94.4318°
Mean anomaly
265.7033°
Rev number
5,855

§ Raw data

STARLINK-350521 65540U 25200W   26263.46723728  .00014319  00000+0  44499-3 0  99972 65540  97.2850 329.8159 0000944  94.4318 265.7033 15.33446052 58558

JSON: /api/v1/satellites/65540 · /tle

For live sub-satellite position, see the globe view (requires WebGL).

§ Visibility from observer

Set your observer location to see the next 7 days of passes ≥ 10°. The values pass through the URL so the page stays shareable.

No JS? Fill the form by hand. The geolocation button needs JavaScript.